COSMOS 2251 DEB, 34023

Orbit data source: Space-Track

COSMOS 2251 DEB, 34023 is space debris in LEO originally from a launch on Wed, 16 Jun 1993 UTC launched from the Plesetsk Missile And Space Complex (PKMTR). The debris from Iridium 33, an American commercial communications satellite, has been tracked extensively since its accidental collision with the defunct Russian satellite Cosmos 2251 in 2009. This event, occurring at high speed in low Earth orbit (LEO), generated thousands of pieces of space debris, significantly increasing the risk of further collisions. The Iridium 33 debris cloud has impacted space traffic management and orbital debris mitigation strategies, making it a subject of ongoing study in space situational awareness.

Loading next visibility...
Identifier
34023, 1993-036HJ
Orbit
LEO
Country
Flag of CISCIS
Related business
Manufacturer
Unknown
Mission
Spacecraft
Bus & Motor
Unknown
Mass
Unknown
Launch date (UTC)
1993-06-16 (33 years ago)
Launch vehicle
Unknown
Launch site
Plesetsk Missile And Space Complex (PKMTR)
Object type
Payload
Rocket body
Debris
Shape & HBR
Unknown shape, 0.2 m
Radar Cross Section
Medium (>0.1 m² and <1 m²)

Expand to show TLE details & history
Last TLE update: 6 hours ago

TLE from 6 hours ago
0 COSMOS 2251 DEB
1 34023U 93036HJ  26238.09721086  .00000563  00000-0  18310-3 0  9997
2 34023  74.0249 137.1108 0018775 178.3387 298.4028 14.41012217919067
Epoch: 2026-08-26T02:19Z
TLE epoch observation values (Epoch: 2026-08-26T02:19:59.018Z)
Latitude
59.42113°
Longitude
-81.04887°
Altitude
758.532 km
Speed
7.484 km/s
True Right ascension
19h 13m 12s
True Declination
59° 16' 13"
Sunlit
Object was in daylight at epoch
Visualization orbit readout
Latitude
Unknown
Longitude
Unknown
Altitude
Unknown
Speed
Unknown
Apparent Right ascension
Unknown
Apparent Declination
Unknown
Sunlit
N/A
Visualization observer readout
Local Sidereal Time
23:44:06
Azimuth
Unknown
Elevation
Unknown
Doppler factor
Unknown
Orbital elements
Apogee altitude
766.164 km
Perigee altitude
739.387 km
Semi-major axis
7,130.912 km
Eccentricity
0.00188
Inclination
74.0249°
RAAN
137.1108°
Arg. of periapsis
178.3387°
True anomaly
298.21334°
Mean anomaly
298.4028°
Eccentric anomaly
298.30809°
Mean motion
3.60434 °/min
Orbital period
99.88 mins
BSTAR
0.0001831
Loading maneuver chart data...
Computing Atmospheric mass density...
Loading historical data...
Loading historical data...
Loading historical data...
Loading historical data...
Loading historical data...
Loading historical data...
Loading historical data...

Documentation

Showing up to 5 results
|